Location: Del Amo
(33.8464°N, 118.2104°W)
Time: 03:17:16
(UTC+00:00)

SR - Pass Details

Date: 28 September 2024
Orbit: 578 x 855 km, 66.7° (Epoch: 02 October)

Event Time Altitude Azimuth Distance (km) Brightness Sun altitude
Rises 04:11:36 0° 317° (NW) 3,070 ? -31.4°
Reaches altitude 10° 04:14:15 10° 303° (WNW) 2,199 ? -31.9°
Maximum altitude 04:18:11 23° 251° (WSW) 1,544 ? -32.7°
Enters shadow 04:19:31 21° 229° (SW) 1,654 ? -33.0°
Drops below altitude 10° 04:22:20 10° 200° (SSW) 2,332 - -33.5°
Sets 04:25:16 0° 187° (S) 3,301 - -34.1°
